Home > Time Zones > World Clock > Weather > U.S.A. > Waco > Past weeks

Flag for U.S.A. Weather past 2 weeks in Waco, Texas, U.S.A.

Now
30 °F

Sunny.


Feels Like: 18 °F
Forecast: 24 / 37 °F
Wind: 18 mph from North

Location: Waco Regional Airport

Current Time: Mar 5, 2015 at 11:11:00 AM

Latest Report: Mar 5, 2015 at 9:51 AM


Visibility: 10 mi

Pressure: 30.60 "Hg

Humidity: 72%

Dew point: 22 °F

Location of WacoLocation

Historic Weather in Waco — Graph

°F

Waco temperature yesterday

Maximum temperature yesterday: 56 °F (at 1:51 AM)
Minimum temperature yesterday: 32 °F (at 9:51 PM)
Average temperature yesterday: 46 °F

Past Weeks' High & Low Weather Summary

 TemperatureHumidityPressure
High70 °F (Feb 20, 2:51 PM)100% (Feb 25, 9:03 AM)30.60 "Hg (Feb 25, 9:03 AM)
Low26 °F (Mar 5, 6:51 AM)34% (Feb 18, 4:51 PM)29.71 "Hg (Feb 20, 4:51 PM)
Average41 °F83%30.17 "Hg
* Reported Feb 18 9:51 AM — Mar 5 9:51 AM, Waco, Weather by CustomWeather, © 2015

Note: Actual official high and low records may vary slightly from our data, if they occured in-between our weather recording intervals... More about our weather records

Advertising

Waco weather history for previous 24 hours

 ConditionsComfort  
Time TempWeatherWind HumidityBarometerVisibility
9:51 AM
Thu, Mar 5
30 °FSunny.18 mph72%30.60 "Hg10 mi
8:51 AM29 °FSunny.21 mph72%30.56 "Hg10 mi
7:51 AM27 °FSunny.16 mph75%30.53 "Hg10 mi
6:51 AM26 °FSunny.18 mph81%30.50 "Hg10 mi
5:51 AM27 °FOvercast.22 mph89%30.45 "Hg10 mi
4:51 AM28 °FOvercast.20 mph89%30.41 "Hg10 mi
3:51 AM28 °FOvercast.21 mph89%30.37 "Hg10 mi
2:51 AM28 °FLight snow. Ice fog.18 mph93%30.36 "Hg1 mi
1:51 AM29 °FLight snow. Ice fog.20 mph93%30.35 "Hg5 mi
12:51 AM32 °FFreezing rain. Ice fog.23 mph88%30.30 "Hg5 mi
11:57 PM
Wed, Mar 4
32 °FFreezing rain. Overcast.21 mph88%30.28 "Hg8 mi
10:51 PM32 °FFreezing rain. Ice fog.16 mph88%30.26 "Hg5 mi
9:51 PM32 °FLight snow. Ice fog.24 mph92%30.23 "Hg5 mi
8:51 PM33 °FLight snow. Overcast.20 mph88%30.16 "Hg8 mi
7:51 PM33 °FOvercast.25 mph88%30.10 "Hg10 mi
7:01 PM34 °FLight snow. Fog.20 mph92%30.09 "Hg4 mi
5:51 PM36 °FFog.20 mph92%30.04 "Hg6 mi
4:51 PM39 °FMostly cloudy.15 mph89%30.00 "Hg10 mi
3:51 PM41 °FLight rain. Fog.21 mph93%29.96 "Hg4 mi
2:51 PM45 °FMostly cloudy.20 mph90%29.92 "Hg10 mi
2:00 PM48 °FLight rain. Fog.25 mph93%29.92 "Hg3 mi
1:51 PM48 °FLight rain. Fog.21 mph96%29.90 "Hg3 mi
12:59 PMN/ALight rain.15 mphN/A29.90 "Hg2 mi
11:51 AM53 °FRain. Fog.14 mph96%29.90 "Hg2 mi
Weather by CustomWeather, © 2015

See weather overviewHow to use our weather pages